Weather History for Marion, IN

Change the Weather History Date:

Thursday, March 27, 2014

  Actual Average (KMIE) Record (KMIE)
Temperature  
Mean Temperature 40 °F 44 °F  
Max Temperature 48 °F 54 °F 79 °F (2007)
Min Temperature 31 °F 34 °F 16 °F (1965)
Degree Days  
Heating Degree Days 26 21  
Month to date heating degree days 706  
Since 1 July heating degree days 5089  
Cooling Degree Days 0 0  
Month to date cooling degree days 0  
Year to date cooling degree days 0  
Moisture  
Dew Point 26 °F    
Average Humidity 61    
Maximum Humidity 76    
Minimum Humidity 45    
Precipitation  
Precipitation 0.02 in 0.11 in 0.57 in (2008)
Month to date precipitation 2.52  
Year to date precipitation 7.06  
Sea Level Pressure  
Sea Level Pressure 29.93 in    
Wind  
Wind Speed 14 mph (South)    
Max Wind Speed 24 mph    
Max Gust Speed 33 mph    
Visibility 9 miles    
Events Rain , Snow    
T = Trace of Precipitation, MM = Missing Value Source: NWS Daily Summary

Daily Weather History Graph

Daily Weather History Graph

Search for Another Location

Airport:

Trip Planner

Search our weather history database for the weather conditions in past years. The results will help you decide how hot, cold, wet, or windy it might be!

Date:

Astronomy

Mar. 27, 2014 Rise Set
Actual Time 7:34 AM EDT 8:02 PM EDT
Civil Twilight 7:07 AM EDT 8:29 PM EDT
Nautical Twilight 6:35 AM EDT 9:01 PM EDT
Astronomical Twilight 6:02 AM EDT 9:34 PM EDT
Moon 5:26 AM EDT (3/27) 4:48 PM EDT (3/27)
Length of Visible Light 13h 22m
Length of Day
12h 27m
Waning Crescent, 13% of the Moon is Illuminated
Mar 27
Waning Crescent
Mar 30
New
Apr 7
First Quarter
Apr 15
Full
Apr 22
Last Quarter

Hourly Weather History & Observations

Time (EDT) Temp. Windchill Dew Point Humidity Pressure Visibility Wind Dir Wind Speed Gust Speed Precip Events Conditions
12:15 AM 31.8 °F 23.3 °F 15.6 °F 51% 30.16 in 10.0 mi South 10.4 mph - N/A   Clear
12:35 AM 31.8 °F 23.3 °F 16.2 °F 52% 30.14 in 10.0 mi South 10.4 mph - N/A   Clear
12:55 AM 32.0 °F 23.0 °F 16.0 °F 52% 30.15 in 10.0 mi South 11.5 mph - N/A   Clear
1:15 AM 32.0 °F 23.0 °F 16.0 °F 52% 30.14 in 10.0 mi South 11.5 mph - N/A   Clear
1:35 AM 32.0 °F 23.6 °F 16.0 °F 52% 30.14 in 10.0 mi South 10.4 mph - N/A   Clear
1:55 AM 32.4 °F 24.0 °F 15.8 °F 51% 30.13 in 10.0 mi South 10.4 mph - N/A   Clear
2:15 AM 32.7 °F 24.5 °F 15.6 °F 49% 30.12 in 10.0 mi South 10.4 mph - N/A   Mostly Cloudy
2:35 AM 32.9 °F 25.3 °F 15.8 °F 49% 30.12 in 10.0 mi South 9.2 mph - N/A   Overcast
2:55 AM 33.1 °F 23.9 °F 15.8 °F 49% 30.11 in 10.0 mi South 12.7 mph - N/A   Overcast
3:15 AM 33.6 °F 24.6 °F 15.6 °F 48% 30.11 in 10.0 mi South 12.7 mph - N/A   Overcast
3:35 AM 33.8 °F 25.3 °F 16.0 °F 48% 30.10 in 10.0 mi South 11.5 mph - N/A   Overcast
3:55 AM 34.2 °F 25.7 °F 15.3 °F 46% 30.08 in 10.0 mi South 11.5 mph - N/A   Overcast
4:15 AM 34.5 °F 25.3 °F 15.3 °F 45% 30.08 in 10.0 mi South 13.8 mph - N/A   Overcast
4:35 AM 34.7 °F 26.4 °F 15.4 °F 45% 30.08 in 10.0 mi South 11.5 mph - N/A   Overcast
4:55 AM 34.7 °F 25.5 °F 15.8 °F 46% 30.07 in 10.0 mi South 13.8 mph - N/A   Overcast
5:15 AM 34.7 °F 25.9 °F 16.0 °F 46% 30.07 in 10.0 mi South 12.7 mph - N/A   Overcast
5:35 AM 34.7 °F 25.5 °F 15.6 °F 46% 30.06 in 10.0 mi South 13.8 mph 19.6 mph N/A   Overcast
5:55 AM 34.7 °F 25.5 °F 16.0 °F 46% 30.06 in 10.0 mi South 13.8 mph 20.7 mph N/A   Overcast
6:15 AM 34.9 °F 24.6 °F 16.2 °F 46% 30.07 in 10.0 mi South 17.3 mph 25.3 mph N/A   Overcast
6:35 AM 35.1 °F 25.2 °F 16.5 °F 47% 30.05 in 10.0 mi South 16.1 mph 19.6 mph N/A   Overcast
6:55 AM 34.7 °F 25.1 °F 18.5 °F 52% 30.04 in 10.0 mi South 15.0 mph - N/A Rain Light Rain
7:15 AM 33.8 °F 24.3 °F 21.7 °F 61% 30.05 in 10.0 mi South 13.8 mph - N/A   Overcast
7:35 AM 33.8 °F 24.3 °F 21.9 °F 62% 30.05 in 10.0 mi South 13.8 mph - N/A   Overcast
7:55 AM 33.8 °F 23.2 °F 22.6 °F 64% 30.02 in 10.0 mi SSE 17.3 mph 21.9 mph N/A Rain Light Rain
8:15 AM 33.8 °F 23.2 °F 22.8 °F 64% 30.00 in 10.0 mi SSE 17.3 mph - N/A   Overcast
8:35 AM 34.2 °F 23.6 °F 22.8 °F 63% 30.00 in 10.0 mi SSE 17.3 mph 24.2 mph N/A   Overcast
8:55 AM 35.4 °F 26.4 °F 21.6 °F 57% 29.99 in 10.0 mi South 13.8 mph 18.4 mph N/A   Overcast
9:15 AM 36.0 °F 26.7 °F 21.2 °F 55% 30.01 in 10.0 mi South 15.0 mph 21.9 mph N/A   Overcast
9:35 AM 36.1 °F 25.9 °F 21.9 °F 56% 30.01 in 10.0 mi South 18.4 mph 27.6 mph N/A   Overcast
9:55 AM 36.5 °F 25.7 °F 23.2 °F 59% 30.01 in 10.0 mi South 20.7 mph 26.5 mph N/A   Overcast
10:15 AM 36.3 °F 27.1 °F 24.6 °F 63% 30.00 in 7.0 mi South 15.0 mph - N/A   Overcast
10:35 AM 35.6 °F 25.5 °F 25.9 °F 68% 29.99 in 5.0 mi South 17.3 mph 25.3 mph N/A Snow Light Snow
10:55 AM 35.2 °F 24.4 °F 27.0 °F 72% 29.99 in 7.0 mi South 19.6 mph 26.5 mph N/A   Overcast
11:15 AM 35.2 °F 26.6 °F 27.9 °F 74% 29.99 in 7.0 mi South 12.7 mph - N/A Rain Light Rain
11:35 AM 35.2 °F 27.6 °F 28.2 °F 76% 29.98 in 7.0 mi SSE 10.4 mph - N/A Rain Light Rain
11:55 AM 35.8 °F 27.8 °F 28.2 °F 74% 29.98 in 10.0 mi South 11.5 mph - N/A Rain Light Rain
12:15 PM 36.5 °F 28.2 °F 28.0 °F 71% 29.96 in 7.0 mi South 12.7 mph - N/A Rain Light Rain
12:35 PM 36.9 °F 28.2 °F 27.7 °F 69% 29.94 in 10.0 mi South 13.8 mph - N/A   Overcast
12:55 PM 38.3 °F 29.0 °F 27.3 °F 65% 29.94 in 10.0 mi South 17.3 mph 25.3 mph N/A   Overcast
1:15 PM 39.0 °F 29.9 °F 27.5 °F 63% 29.93 in 10.0 mi SSW 17.3 mph 20.7 mph N/A   Overcast
1:35 PM 39.4 °F 29.0 °F 28.4 °F 65% 29.92 in 10.0 mi SSW 23.0 mph 28.8 mph N/A   Overcast
1:55 PM 39.4 °F 29.8 °F 29.8 °F 69% 29.91 in 10.0 mi SSW 19.6 mph 27.6 mph N/A Rain Light Rain
2:15 PM 39.4 °F 30.7 °F 31.1 °F 72% 29.89 in 10.0 mi SSW 16.1 mph 21.9 mph N/A Rain Light Rain
2:35 PM 39.4 °F 30.1 °F 31.1 °F 72% 29.88 in 7.0 mi South 18.4 mph 26.5 mph N/A   Overcast
2:55 PM 40.3 °F 31.3 °F 31.5 °F 71% 29.87 in 10.0 mi SSW 18.4 mph 24.2 mph N/A   Overcast
3:15 PM 40.8 °F 31.4 °F 31.6 °F 70% 29.85 in 10.0 mi South 20.7 mph 25.3 mph N/A   Overcast
3:35 PM 42.3 °F 33.6 °F 31.8 °F 67% 29.85 in 10.0 mi SSW 19.6 mph 24.2 mph N/A   Overcast
3:55 PM 43.0 °F 34.8 °F 31.5 °F 64% 29.84 in 10.0 mi SSW 18.4 mph 28.8 mph N/A   Overcast
4:15 PM 43.3 °F 34.5 °F 32.0 °F 64% 29.83 in 10.0 mi SSW 21.9 mph 28.8 mph N/A   Overcast
4:35 PM 43.0 °F 34.8 °F 32.9 °F 68% 29.82 in 7.0 mi SSW 18.4 mph 26.5 mph N/A   Overcast
4:55 PM 43.0 °F 35.1 °F 33.6 °F 70% 29.81 in 10.0 mi South 17.3 mph 24.2 mph N/A   Overcast
5:15 PM 43.7 °F 36.9 °F 33.4 °F 67% 29.79 in 10.0 mi South 13.8 mph 20.7 mph N/A   Overcast
5:35 PM 44.2 °F 38.4 °F 33.6 °F 66% 29.77 in 10.0 mi South 11.5 mph - N/A   Overcast
5:55 PM 44.6 °F 38.8 °F 33.3 °F 64% 29.76 in 10.0 mi SSE 11.5 mph - N/A   Overcast
6:15 PM 44.8 °F 39.0 °F 34.0 °F 66% 29.75 in 7.0 mi South 11.5 mph - N/A   Overcast
6:35 PM 45.7 °F 38.6 °F 34.7 °F 65% 29.73 in 10.0 mi South 17.3 mph 23.0 mph N/A   Overcast
6:55 PM 48.6 °F - 33.8 °F 57% 29.73 in 10.0 mi South 24.2 mph 32.2 mph N/A   Overcast
7:15 PM 48.9 °F - 34.0 °F 56% 29.73 in 7.0 mi South 19.6 mph - N/A   Overcast
7:35 PM 48.4 °F - 34.2 °F 58% 29.73 in 10.0 mi South 17.3 mph 24.2 mph N/A   Overcast
7:55 PM 47.5 °F - 34.7 °F 61% 29.72 in 10.0 mi South 12.7 mph 18.4 mph N/A   Overcast
8:15 PM 47.3 °F - 34.3 °F 61% 29.73 in 7.0 mi South 16.1 mph 23.0 mph 0.01 in Rain Rain
8:35 PM 46.2 °F 40.8 °F 36.0 °F 67% 29.73 in 10.0 mi South 11.5 mph - 0.02 in   Overcast
8:55 PM 45.9 °F 40.0 °F 36.1 °F 69% 29.73 in 7.0 mi South 12.7 mph - 0.02 in Rain Light Rain
9:15 PM 46.4 °F 39.0 °F 36.5 °F 68% 29.73 in 7.0 mi South 19.6 mph 24.2 mph N/A Rain Light Rain
9:35 PM 46.8 °F - 37.4 °F 70% 29.72 in 10.0 mi South 20.7 mph 25.3 mph N/A   Overcast
9:55 PM 47.1 °F - 37.0 °F 68% 29.72 in 10.0 mi SSW 18.4 mph - N/A   Overcast
10:15 PM 47.3 °F - 36.9 °F 67% 29.71 in 10.0 mi South 18.4 mph 25.3 mph N/A   Overcast
10:35 PM 47.3 °F - 36.7 °F 67% 29.71 in 10.0 mi SSW 17.3 mph 24.2 mph N/A   Overcast
10:55 PM 46.8 °F - 36.7 °F 68% 29.71 in 10.0 mi SSW 15.0 mph - N/A   Overcast
11:15 PM 46.2 °F 38.7 °F 36.7 °F 69% 29.71 in 10.0 mi SSW 19.6 mph 25.3 mph N/A   Mostly Cloudy
11:35 PM 46.4 °F 39.0 °F 36.5 °F 68% 29.70 in 10.0 mi SSW 19.6 mph 25.3 mph N/A   Overcast
11:55 PM 46.4 °F 38.3 °F 36.1 °F 67% 29.68 in 10.0 mi South 23.0 mph 33.4 mph N/A   Scattered Clouds